Location: Blue Pit
(43.1414°N, 93.2208°W)
Time: 01:37:25
(UTC+00:00)

Cosmos 1302 Rocket - Pass Details

Date: 18 November 2025
Orbit: 752 x 772 km, 74.0° (Epoch: 08 December)

Event Time Altitude Azimuth Distance (km) Brightness Sun altitude
Rises 12:25:21 0° 216° (SW) 3,189 7.0 -8.3°
Reaches altitude 10° 12:27:48 10° 222° (SW) 2,269 6.2 -7.9°
Maximum altitude 12:32:44 46° 295° (WNW) 1,007 4.2 -7.1°
Drops below altitude 10° 12:37:43 10° 9° (N) 2,289 6.4 -6.2°
Sets 12:40:12 0° 16° (NNE) 3,221 7.2 -5.8°
